Location: Montardit
(43.0694°N, 1.1925°E)
Time: 15:53:31
(UTC+00:00)

Daily predictions for brighter satellites

Satellite Brightness Start Highest point End
(mag) Time Altitude Azimuth Time Altitude Azimuth Time Altitude Azimuth
CENTAUR R/B 3.8 18:23:12 10° NNW 18:30:43 40° NE 18:39:01 10° ESE
SL-8 R/B 3.8 18:31:51 10° WNW 18:36:38 69° NNE 18:41:26 10° ESE
Cosmos 1666 Rocket 4.3 18:39:25 10° SSW 18:43:43 58° W 18:48:03 10° N
Okean 3 4.0 18:39:58 10° N 18:43:54 38° ENE 18:47:51 10° SE
Cosmos 1933 Rocket 4.0 18:40:29 10° SSE 18:44:26 37° E 18:48:27 10° NNE
Cosmos 1624 Rocket 4.1 18:39:42 10° S 18:44:54 62° ESE 18:50:09 10° NNE
Okean 1-7 3.5 18:40:57 10° N 18:45:05 39° ENE 18:49:09 10° SSE
Cosmos 2098 Rocket 4.5 18:42:06 10° SE 18:46:30 29° E 18:51:40 10° NNE
Meteor 1-11 Rocket 4.5 18:42:00 10° SSW 18:47:52 63° WNW 18:53:39 10° N
Iridium 4 Rocket 4.5 18:45:16 10° NE 18:48:06 17° ENE 18:50:55 10° ESE
Exosat Rocket 3.7 18:45:34 10° S 18:50:31 60° ESE 18:56:33 10° NNE
Cosmos 2333 4.2 18:45:44 10° NNW 18:51:34 82° ENE 18:57:19 10° SSE
Cosmos 2322 Rocket 3.5 18:46:36 10° NW 18:52:01 45° WSW 18:57:23 10° S
Cosmos 1420 Rocket 4.0 18:46:55 10° S 18:52:06 67° ESE 18:57:16 10° NNE
In-Cosmos 22 4.3 18:46:35 10° N 18:52:09 59° ENE 18:57:49 10° SSE
CZ-3 Stage 3 3.9 18:51:02 10° S 18:52:37 13° SSE 18:54:45 10° SE
Cosmos 2237 Rocket 3.8 18:50:21 10° N 18:54:03 17° NE 18:57:25 11° E
KORONAS-FOTON 4.1 18:50:35 10° N 18:54:14 44° ENE 18:57:53 10° SSE
Cosmos 1842 3.2 18:50:36 10° N 18:54:25 85° W 18:58:12 10° S
GEOS 3 Rocket 3.9 18:50:40 10° NE 18:56:05 79° NW 19:01:27 10° SW
Cosmos 1862 Rocket 4.3 18:52:17 10° NNW 18:56:41 59° W 19:01:04 10° S
Meteor 1-21 4.5 18:51:53 10° N 18:57:18 47° ENE 19:02:44 10° SSE
Cosmos 1459 Rocket 4.1 18:51:42 10° N 18:57:38 54° ENE 19:03:32 10° SSE
USA 305 2.7 18:56:31 10° NW 19:00:19 78° SW 19:03:56 11° SE
MOS 1-B 4.4 18:56:45 10° SSE 19:02:34 88° WSW 19:08:24 10° NNW
Cosmos 1633 Rocket 4.4 18:58:36 10° SSW 19:02:47 44° WNW 19:07:02 10° N
USA 307 2.8 19:00:40 10° WNW 19:04:28 68° SW 19:07:59 12° SE
Resurs 01 Rocket 3.3 19:03:03 14° E 19:04:44 17° ENE 19:07:32 10° NNE
Cosmos 1725 Rocket 4.5 18:59:15 10° N 19:05:00 39° ENE 19:10:42 10° SE
CZ-4B R/B 3.4 19:00:19 10° SSE 19:05:59 86° WSW 19:11:41 10° NNW
Lacrosse 5 rocket 2.9 19:03:59 10° SSE 19:06:45 17° ESE 19:07:26 16° ESE
Cosmos 1975 2.9 19:04:28 10° S 19:08:17 51° E 19:12:09 10° NNE
Cosmos 2322 3.7 19:03:27 10° NNW 19:09:05 64° ENE 19:14:41 10° SE
Cosmos 1452 Rocket 4.2 19:04:45 10° SSE 19:09:20 31° E 19:13:56 10° NE
SJ-6B 3.0 19:06:50 10° SSE 19:10:39 51° ENE 19:14:26 10° N
Cosmos 1805 4.1 19:08:55 10° SSE 19:12:08 26° E 19:15:21 10° NNE
Cosmos 1707 2.6 19:08:30 10° N 19:12:19 89° E 19:16:05 10° S
Cosmos 676 Rocket 4.0 19:07:10 10° NNW 19:12:23 69° ENE 19:17:37 10° SSE
Cosmos 2333 Rocket 2.8 19:10:59 10° NNW 19:16:40 60° WSW 19:22:19 10° S
ISS -1.6 19:15:58 10° WNW 19:18:41 22° NNW 19:21:24 10° NE
Cosmos 2219 Rocket 2.2 19:13:09 10° NNW 19:18:52 86° WSW 19:24:33 10° SSE
SL-27 R/B 2.6 19:15:49 10° SSW 19:19:06 67° WNW 19:22:22 10° NNE
Cosmos 1802 Rocket 4.0 19:13:24 10° N 19:19:36 64° E 19:25:53 10° SSE
IGS 5A 3.4 19:15:49 10° SSE 19:19:56 85° W 19:24:05 10° NNW
Cosmos 1703 Rocket 3.5 19:17:14 10° N 19:21:43 83° E 19:26:08 10° S
Cosmos 1674 2.6 19:19:41 10° N 19:23:25 83° W 19:27:08 10° S
CSL-04 Debris 4.2 19:18:24 10° SSE 19:23:43 62° ENE 19:29:05 10° N
Resurs 1-3 3.7 19:20:37 11° SSE 19:24:45 55° ENE 19:29:02 10° N
EXPRESS MD2 2.4 19:23:38 10° WNW 19:25:45 51° SSW 19:26:19 37° SSE
SL-14 R/B 4.0 19:24:25 10° NNE 19:27:52 31° ENE 19:28:35 29° E
COSMOS 2428 2.7 19:22:09 10° NNW 19:27:53 69° ENE 19:32:31 16° SE
USA 186 1.5 19:26:43 18° SSE 19:28:50 73° ENE 19:31:57 10° N
BREEZE M DEB (TANK) 3.8 19:28:35 10° WNW 19:30:50 24° NNW 19:31:58 17° NNE
Okean-O 2.9 19:29:27 22° SE 19:32:02 47° ENE 19:36:17 10° N
USA 308 3.8 19:29:12 10° WNW 19:32:41 37° SW 19:35:08 17° SSE
Cosmos 2297 Rocket 2.8 19:29:08 10° SSE 19:34:03 32° ESE 19:38:59 10° NE
Cosmos 1954 Rocket 4.3 19:29:29 10° NNW 19:34:42 67° WSW 19:39:54 10° S
Cosmos 2016 Rocket 3.9 19:29:35 10° N 19:35:41 70° E 19:41:47 10° SSE
Cosmos 2123 Rocket 3.9 19:29:32 10° S 19:35:47 76° E 19:42:07 10° N
Cosmos 1733 Rocket 4.5 19:38:38 20° ENE 19:38:38 20° ENE 19:40:42 10° NE
Cosmos 1726 2.0 19:35:28 19° SSE 19:37:45 51° E 19:41:11 10° NNE
CZ-4 R/B 2.7 19:34:51 10° SSW 19:38:25 37° W 19:42:02 10° NNW
Cosmos 2173 Rocket 4.4 19:34:46 10° NNW 19:41:07 69° W 19:47:25 10° S
Okean O Rocket 2.6 19:37:50 10° S 19:42:06 48° W 19:46:22 10° NNW
NOSS 0 Rocket 4.0 19:39:09 10° NNW 19:45:18 62° ENE 19:48:33 28° SE
SL-08 R/B 4.4 19:39:45 10° N 19:46:10 73° E 19:52:18 11° SSE
Cosmos 2242 Rocket 3.6 19:42:11 10° N 19:46:47 87° E 19:50:25 16° S
Ariane Rocket 4.4 19:47:24 20° ENE 19:47:24 20° ENE 19:50:58 10° NNE
Cosmos 2227 Rocket 4.2 19:53:55 12° NE 19:53:55 12° NE 19:54:21 10° NE
Helios 1B 4.4 19:46:38 10° NNE 19:51:00 83° ESE 19:55:18 10° SSW
Cosmos 1733 3.3 19:48:07 10° SSW 19:51:53 75° W 19:55:39 10° N
Cosmos 1867 3.5 19:48:42 10° SSW 19:54:05 67° ESE 19:59:30 10° NE
Okean 2 3.3 19:56:59 10° N 20:01:04 87° WSW 20:02:24 42° S
SL-16 R/B 3.7 19:58:46 10° N 20:02:51 20° NE 20:03:15 20° NE
NOSS 3-2 (A) 4.1 20:00:56 10° NW 20:08:36 83° WSW 20:13:45 28° SSE
Cosmos 1818 4.4 20:03:34 10° NW 20:08:46 46° WSW 20:12:05 21° S
H-2A R/B 4.1 20:18:42 25° NNE 20:18:42 25° NNE 20:21:07 10° N
NOSS 3-2 (C) 4.1 20:10:54 10° NNW 20:18:28 71° NE 20:21:41 42° ESE
Geosat 4.0 20:18:43 51° SSE 20:20:00 80° WSW 20:25:03 10° NNW
CENTAUR R/B 3.5 20:13:45 10° NW 20:22:06 69° WSW 20:27:30 27° SSE
Iridium 4 Rocket 4.5 20:24:23 10° NNW 20:28:11 35° W 20:31:13 14° SW
SPOT 1/Viking Rocket 3.8 20:27:33 37° S 20:29:29 65° WSW 20:34:40 10° NNW
Cosmos 2233 Rocket 4.1 20:24:25 10° NNW 20:30:33 72° W 20:33:52 29° S
Cosmos 1850 Rocket 4.3 20:26:04 10° NNW 20:31:20 64° WSW 20:32:43 46° SSW
USA 238 DEB 3.9 20:24:34 10° NNW 20:31:55 69° NE 20:33:45 53° ESE
USA 238 3.9 20:24:40 10° NNW 20:32:01 68° NE 20:33:50 53° ESE
Cosmos 1110 Rocket 4.5 20:32:12 10° SSW 20:37:20 59° WNW 20:42:29 10° NNE
Terra 3.8 20:40:22 18° NNE 20:40:22 18° NNE 20:42:01 10° N
Cosmos 2237 Rocket 2.0 20:33:12 10° NNW 20:38:52 86° WSW 20:39:15 78° S
Resurs 01 Rocket 2.2 20:40:35 51° WSW 20:40:47 51° W 20:45:07 10° NNW
Lacrosse 5 rocket 3.1 20:40:56 10° SW 20:42:54 26° WSW 20:42:54 26° WSW
CZ-4C R/B 3.9 20:42:26 10° NNW 20:48:38 32° NE 20:49:46 31° NE
MetOp-B 4.2 20:50:58 71° N 20:50:58 71° N 20:55:46 10° NNW
SPOT 5 4.2 20:53:49 29° N 20:53:49 29° N 20:56:19 10° N
MetOp-A 4.2 20:52:25 73° WNW 20:52:25 73° WNW 20:57:27 10° NNW
ISS -0.6 20:53:45 10° NW 20:54:34 14° NNW 20:54:34 14° NNW
Meteor 1-24 Rocket 4.3 20:51:55 10° N 20:56:26 49° NNE 20:56:26 49° NNE
FALCON 9 R/B 3.5 20:39:52 10° W 20:58:04 50° SSW 20:58:48 49° S
Cosmos 1980 4.1 20:54:21 10° NNW 20:59:54 55° WSW 21:00:06 55° WSW
ADEOS Rocket 3.6 21:05:22 49° NE 21:05:22 49° NE 21:10:58 10° N
Cosmos 2297 Rocket 3.4 21:12:41 10° SW 21:17:57 39° WNW 21:23:16 10° NNE
Meteor 2-5 Rocket 4.4 21:15:14 10° NNW 21:19:35 53° NNW 21:19:35 53° NNW
Ariane Rocket 4.3 21:27:34 37° NW 21:27:34 37° NW 21:30:51 10° NNW
Cosmos 1464 Rocket 4.4 21:21:55 10° N 21:27:08 61° NNW 21:27:08 61° NNW
Cosmos 2227 Rocket 3.6 21:35:33 33° N 21:35:33 33° N 21:38:58 10° NNE
SL-16 R/B 3.6 21:41:54 10° NNW 21:45:08 35° NW 21:45:08 35° NW
ATLAS 3B R/B 4.4 21:57:23 10° NNW 22:03:30 26° NNE 22:03:35 26° NNE
SJ 16-02 4.4 21:59:29 10° NNW 21:59:43 11° NNW 21:59:43 11° NNW
CZ-4C R/B 3.9 22:30:28 10° NW 22:34:56 43° NW 22:34:56 43° NW
